Location: Lafig�re
(44.4503°N, 4.0357°E)
Time: 20:56:06
(UTC+00:00)

X-37B - Visible Passes

Search period start: 28 November 2021 00:00
Search period end: 08 December 2021 00:00
Orbit: 330 x 341 km, 45.0° (Epoch: 20 November)

Date Brightness Start Highest point End Pass type
(mag) Time Alt. Az. Time Alt. Az. Time Alt. Az.
05 Dec 3.1 18:09:28 10° SSW 18:10:00 13° S 18:10:00 13° S visible
06 Dec 3.4 18:29:08 10° SW 18:29:43 14° SW 18:29:43 14° SW visible
07 Dec 2.3 17:14:55 10° SSW 17:17:02 19° SSE 17:18:08 15° ESE visible
07 Dec 4.1 18:49:22 10° WSW 18:49:22 10° WSW 18:49:22 10° WSW visible
